Find Starlink 4779

NORAD ID: 53864 Int'l Des: 2022-114 Owner: SPXS Country: US Constellation: starlink operational
LEOCIRCULAR

实时位置

正在加载3D地球...

关于 Starlink 4779

正在加载描述...

即将过境

Passes for default location (London). Set your location on the main map for personalized predictions.

高度历史

Loading altitude history...

两行轨道根数

1 53864U 22114AY 26106.41765449 .00000146 00000-0 27247-4 0 9998
2 53864 53.2161 114.3176 0001179 82.0131 278.0995 15.08840289198814
Epoch: Apr 16, 2026 • Age: 18 hours

当前状态

高度 539.7 km
速度 7.59 km/s
星下点 12.39°N, 12.65°E
发射日期 Sep 19, 2022
运行时间 3.5 years
类型 internet

技术详情

分类 Payload
质量 305.00 kg
干质量 290.00 kg
总质量 305.00 kg
长度 0.20 m
直径 2.80 m
跨度 9.00 m
形状 Box + pan
制造商 SPXS
平台类型 Starlink
阶段状态 In Orbit
所有者/国家 SPXS/US

Most Searched